FENGYUN 1C DEB, 30453

Orbit data source: Space-Track

FENGYUN 1C DEB, 30453 is space debris in SSO originally from a launch on Mon, 10 May 1999 UTC launched from the Taiyaun Space Center, China (TSC). Fengyun 1C debris stems from the Chinese weather satellite Fengyun-1C, which was intentionally destroyed by a Chinese anti-satellite missile in 2007. This event dramatically increased the amount of space debris, with thousands of trackable fragments posing hazards to satellites and human spaceflight. The Fengyun 1C debris cloud has become a focal point in discussions about space sustainability and the need for international regulations to prevent the creation of new debris.

Loading next visibility...
Identifier
30453, 1999-025AFQ
Orbit
SSO
Country
Flag of CNCN / PRC
Related business
Manufacturer
Unknown
Mission
Spacecraft
Bus & Motor
Unknown
Mass
Unknown
Launch date (UTC)
1999-05-10 (27 years ago)
Launch vehicle
Unknown
Launch site
Taiyaun Space Center, China (TSC)
Object type
Payload
Rocket body
Debris
Shape & HBR
Unknown shape, 0.1 m
Radar Cross Section
Small (<0.1 m²)

Expand to show TLE details & history
Last TLE update: 20 hours ago

TLE from 20 hours ago
0 FENGYUN 1C DEB
1 30453U 99025AFQ 26071.88631252  .00002717  00000-0  10959-2 0  9994
2 30453  98.8015 148.9610 0112013 325.6148  95.1326 14.25426790985181
Epoch: 2026-03-12T21:16Z
TLE epoch observation values (Epoch: 2026-03-12T21:16:17.401Z)
Latitude
60.87484°
Longitude
3.31174°
Altitude
825.506 km
Speed
7.442 km/s
True Right ascension
08h 51m 39s
True Declination
60° 43' 47"
Sunlit
Object was in daylight at epoch
Visualization orbit readout
Latitude
Unknown
Longitude
Unknown
Altitude
Unknown
Speed
Unknown
Apparent Right ascension
Unknown
Apparent Declination
Unknown
Sunlit
N/A
Visualization observer readout
Local Sidereal Time
21:22:49
Azimuth
Unknown
Elevation
Unknown
Doppler factor
Unknown
Orbital elements
Apogee altitude
884.665 km
Perigee altitude
723.762 km
Semi-major axis
7,182.35 km
Eccentricity
0.0112
Inclination
98.8015°
RAAN
148.961°
Arg. of periapsis
325.6148°
True anomaly
96.40932°
Mean anomaly
95.1326°
Eccentric anomaly
95.77113°
Mean motion
3.56569 °/min
Orbital period
100.96 mins
BSTAR
0.0010959
Loading maneuver chart data...
Computing Atmospheric mass density...

Documentation

Showing up to 5 results
|